timestamp,gas_concentrations,,corrected_fluxes_and_quality_flags,,,,,,,,,,storage_terms,,,turbulence,,,footprint,,
ISOdate,CO2_1_1_1,H2O_1_1_1,Tau_1_1_1,QcTau_1_1_1,H_1_1_1,QcH_1_1_1,LE_1_1_1, QcLE_1_1_1,Fc_1_1_1, QcFc_1_1_1,E_1_1_1, QcE_1_1_1,Sa_1_1_1,Sw_1_1_1,Sc_1_1_1,ustar_1_1_1,MO_length_1_1_1,ZL_1_1_1,Fetchmax_1_1_1,Fetch70_1_1_1,Fetch90_1_1_1
yyyymmddHHMM,[µmol+1mol_a-1],[mmol+1mol_a-1],[kg+1m-1s-2],[#],[W+1m-2],[#],[W+1m-2],[#],[µmol+1s-1m-2],[#],[mmol+1s-1m-2],[#],[W+1m-2],[W+1m-2],[µmol+1s-1m-2],[m+1s-1],[m],[#],[m],[m],[m]
201801150030,411.83775119424382,1.4025347935687469,1.5555972998700069,0,-6.2861877558927937,0,40.063470542333754,0,-3.4444880637759465,0,0.87654557201870598,0,-9999.,-9999.,-9999.,1.0997088339355496,17792.266211939172,1.21401061240336669E-003,107.64486272879147,196.80914063634086,294.85595599418923
201801150100,411.79102311579879,1.4088873953338201,1.2162515290700597,0,-8.1091154545524997,0,25.242769461285747,0,-1.5699361725071781,1,0.55229268474845672,0,0.39427725254603396,0.25096338201645052,-4.03895430414205475E-002,0.97217819364714242,9532.4655755473614,2.26594051967082127E-003,108.64621171902469,198.63992595436756,297.59880601335755
201801150130,412.35747200986424,1.4591283906298542,0.90736002510956193,0,-10.258271428833439,0,5.7873842880962201,1,-2.0859165760009919,0,0.12662110202428456,1,-0.52868201037577844,1.9855109579253289,0.48977718997792324,0.83956576688609919,4854.1586030554381,4.44979279960154919E-003,108.89972445215243,199.10342808426429,298.29321666508929
201801150200,412.44823369962990,1.4843108187545360,0.80769052382533135,0,-10.716173523905162,0,8.7773493940712370,0,-2.4560653496345304,0,0.19204313524725897,0,0.72158909359590107,0.99502915619897603,7.84650358442183088E-002,0.79217580226454265,3903.3664736546480,5.53368487068454321E-003,108.84591383136885,199.00504510745463,298.14582103810284
201801150230,412.58475670087608,1.5047440256018461,0.67609200268350034,0,-11.134415315012312,0,-1.4642263237857938,2,0.22853113516315338,0,-3.20407241249120942E-002,2,3.6390165660443099,0.80670946106318653,0.11794527797266217,0.72502518596314613,2879.8402438666203,7.50041605467626198E-003,104.92811864676237,191.84206599330727,287.41437305941912
201801150300,412.53863828933578,1.5296986892760118,0.62588871876132279,0,-17.255538518956570,0,3.7000444390815135,1,-2.7104440675965686,0,8.09750289684653818E-002,1,3.1009298909396747,0.98463726795480910,-3.98238332535293532E-002,0.69775637243631261,1656.3895386337797,1.30404107827293298E-002,107.94584482919305,197.35943190919241,295.68039259711975
201801150330,412.67333644042941,1.5562280219907918,0.58051928012111675,0,-13.851264934916475,0,6.9830648702667384,0,-2.1723218434133109,0,0.15284987148491294,0,4.6311296786102680,1.0457923473873019,0.11622505731772689,0.67225036415562600,1845.3160166251353,1.17053121554235723E-002,108.67104973118057,198.68533776226616,297.66684117670451
201801150400,413.04795041564398,1.5847475552719628,0.63210582904769608,0,-19.387442739805376,0,6.7818363997951288,0,-2.4035526877056279,0,0.14846685632878831,0,3.9078912258692902,1.1232071707400182,0.32298595100870969,0.70176095588562515,1499.5519326736467,1.44043027316086251E-002,120.25969637798001,219.87307984189616,329.40993972410013
201801150430,413.26778903505732,1.6091044850846687,0.81644342921553059,0,-16.656716996511410,0,12.337619347018501,0,-5.3212797894570620,0,0.27014753776166300,0,5.4005514264634762,0.95814324257822070,0.18935707269240637,0.79794032114458679,2565.6369953182643,8.41896185602848506E-003,120.95718743813262,221.14831595321920,331.32047579730647
201801150500,413.35119237719238,1.6410797389410596,0.63679230995241842,0,-19.490372975548880,0,7.5943288016536066,1,-1.9673805385667675,1,0.16631859850580319,1,5.0448664474153331,1.2564484160539204,7.17737332930563215E-002,0.70502842100813690,1512.2883076083340,1.42829908102378601E-002,128.40862523871965,234.77192076688797,351.73111835401505
201801150530,413.71686920383996,1.6629062924127442,0.47466456738943247,0,-23.748146217677100,0,-8.0571953167126846,2,-1.1262188711787602,2,-0.17647496757909056,2,2.9464337953747490,0.85698956479178201,0.31447565375650222,0.60890447582915908,799.44107408015986,2.70188769383072416E-002,115.50669597074786,211.18307920574560,316.39073524570227
201801150600,413.68323579315341,1.6741734379272204,0.29008060083642251,0,-16.710120487273642,0,2.9556490769241748,1,-2.2157402447997092,1,6.47386843995551575E-002,1,0.72602485770398184,0.44228470690717564,-2.89181116602200521E-002,0.47605958419961664,542.93008294334197,3.97841281568000540E-002,107.69966657362284,196.90933954348242,295.00607221571875
201801150630,413.48059124070312,1.6795160899848065,0.34176500543047128,0,-15.498219748302011,0,-1.7925778919020992,2,-2.6762735783964295,0,-3.92606009886091525E-002,2,-1.9783722171202136,0.20979940433108948,-0.17428547730932803,0.51665731328144604,748.27618480178512,2.88663469968935896E-002,110.42445166808821,201.89111572179891,302.46968072931310
201801150700,414.15066459151217,1.7010341465055732,0.24878841210801181,0,-7.9871130121837188,0,5.4646465761837151,1,-0.33161109367619673,2,0.11969967925949940,1,3.2036041363194636,0.84439298929211226,0.57596332260641980,0.44094306819838291,902.54216846087218,2.39323997867435107E-002,106.60238239002756,194.90315409502929,292.00044083908313
201801150730,414.24157003550079,1.7424856919841833,0.37032205785950439,0,-14.125430249309547,0,4.3501422819522970,1,-2.5784059136878903,0,9.53107252046969389E-002,1,6.6088791559732991,1.6244953639342270,7.80559391348783216E-002,0.53825596641610995,928.25732830491393,2.32694096145124457E-002,113.04711031116149,206.68617217540955,309.65354907050948
201801150800,413.47524841881307,1.7644967945686929,0.37323500513314145,0,-16.259690791834917,0,2.3404850584985319,0,-1.3003754769793354,0,5.12877059843805244E-002,0,4.2478028525807749,0.86196198133035229,-0.65760452149191051,0.54053426356299827,816.73033934881198,2.64469176169234953E-002,118.42805389365105,216.52425320813452,324.39278719061531
201801150830,413.48223067502983,1.7942185121554937,0.26901553552962471,0,-6.0395044597684455,0,5.5355615731261203,0,-0.82086741025221177,1,0.12131733899412170,0,3.3054752247691344,1.1633578325944969,5.98958022509864067E-003,0.45898629837560151,1346.3880001878265,1.60429237314850676E-002,117.41799305247331,214.67753984807888,321.62607406201835
201801150900,413.16029385014048,1.8067710279508413,0.24837094225907708,1,-6.7470245996436873,0,1.8435970458789701,1,-1.1265239709121246,0,4.04068981679501504E-002,1,1.7397272805833490,0.49117057152497118,-0.27609702542116521,0.44107986336318311,1069.5910903648473,2.01946334394315537E-002,111.05306414500420,203.04041981526800,304.19154769195603
201801150930,413.82934910615165,1.8009481229319149,0.24410833233333484,1,-7.4551992619691978,0,4.7098111346012272,1,-2.1040610864776053,0,0.10322950437731443,1,0.66588019237146923,-0.22782531211608470,0.57375251831070584,0.43729235919359405,943.29163372311314,2.28985387209957036E-002,114.38698244174836,209.13588576042073,313.32366641711741
201801151000,413.59345412935761,1.7961385447752962,0.17323454860385792,0,-4.1480485717176006,0,7.2582234157445527,1,-0.97092328363102165,1,0.15907699387823351,1,-1.4320667259769955,-0.18824425365920830,-0.20235338680776360,0.36832641246686593,1013.1357309173882,2.13199469141625610E-002,116.11330895607445,212.29216121221128,318.05234219259023
201801151030,414.71814144830290,1.7993114854331707,0.15512271124643723,0,-8.7814511383811009,0,5.3481799650343858,0,-1.6340282446226886,0,0.11721920577535250,0,0.96580194662984309,0.12418122534187342,0.96475836150145267,0.34854277014783408,405.56242238109468,5.32593721903138681E-002,107.37349285598626,196.31298995987109,294.11263187034695
201801151100,414.12269007949538,1.7885723796749800,0.12153743293097471,0,-7.4604578977886788,0,2.2654500879690640,0,-0.71176994627064238,2,4.96490038647444260E-002,0,-2.2573967787481277,-0.42054096301648752,-0.51102544446374032,0.30843794108638894,330.85249407232021,6.52858914077840136E-002,115.50893145453851,211.18716638308589,316.39685858213926
201801151130,414.79117076121753,1.7753237622399183,0.12447692936646879,0,-8.8326587608796778,0,2.6698083709968170,1,-1.3010599269371919,1,5.85076549671214585E-002,1,-1.4418144862658204,-0.51911059479142629,0.57399855013603718,0.31206370240077913,289.48500285138260,7.46152643046905234E-002,106.09971775044416,193.98412281720667,290.62356451547947
201801151200,414.60807965978773,1.7621072848956876,8.68857147803992341E-002,0,-8.5378030021540869,0,1.7415904367881248,0,-0.66474652179744842,1,3.81648648779358973E-002,0,-0.91721769264028064,-0.51812839022651092,-0.15729199067408267,0.26065328822138950,174.55878573678692,0.12374054911547180,109.38604287723957,199.99257326863008,299.62531817473530
201801151230,414.84636348141419,1.7676145669433692,5.17276301122751095E-002,0,-6.7552153326400619,0,1.2444745124087446,0,-0.76589771924047190,0,2.72714806123978901E-002,0,0.30859446834428950,0.21595350241933903,0.20475768022621571,0.20109331161897753,101.33113664612728,0.21316251563852878,99.227712108465710,181.41990478988299,271.80007641026350
201801151300,417.63211458694167,1.7740918394106509,4.54477786172908654E-002,0,-3.3166867586342708,0,-6.3066631618053881,2,1.4224286491665916,2,-0.13820455174545934,2,0.0000000000000000,0.25405171302704754,2.3943905168562125,0.18846889473869013,169.93415737153128,0.12710805369620531,130.14589878302502,1044.0000000000000,4627.0000000000000
201801151330,416.74434574538174,1.7803667367649563,1.65964796272340120E-002,0,-2.6512347711675806,0,-2.6496862603954807,1,-0.41983416623720426,1,-5.80654561205916145E-002,1,4.17231965106689903E-002,0.24617796277015574,-0.76324827929405870,0.11387679241162556,46.903674510952825,0.46051829041573333,126.90729428364260,1148.0000000000000,5585.0000000000000
201801151400,416.69912296920927,1.7414129568389354,2.19353459564192860E-002,0,-4.0230598786633838,1,-2.7924601879722215,2,-0.11894020302134502,2,-6.11786044530227141E-002,2,-6.8348271398175156,-1.5306395117840328,-3.89307803679432712E-002,0.13083119365283477,46.881827641505552,0.46073289132774825,57.857091849560547,476.00000000000000,2152.0000000000000
201801151430,415.65489898823239,1.7516054452667176,0.15075948628377669,0,0.94029896393600576,2,1.5347690970954442,1,-1.3140555382160140,0,3.36228685850613260E-002,1,-1.2873128781889422,0.40069414631484468,-0.89932807385643099,0.34291613666019466,-3612.4242970504124,-5.97936405688464113E-003,118.31949073167722,216.32576512360171,324.09541587072056
201801151500,415.55694458452143,1.8036863833522983,0.19776924505025115,0,-9.3875451335173370,1,2.1411568067729010,2,-1.3335882279767284,0,4.69209849425280198E-002,2,7.8259546144038170,2.0451007490800319,-8.42904788495995178E-002,0.39292912489634285,544.50902654759125,3.96687638714692953E-002,115.91228994213624,211.92463434300601,317.50171997035659
201801151530,415.41589161543800,1.8380990985021224,0.10743040769580414,0,2.3052540719665187,0,1.1748947732854025,0,-0.83921785661977744,0,2.57527882072189317E-002,0,6.5679036114618565,1.3498935854047869,-0.12127969905455852,0.28971809531757220,-888.97552463043303,-2.42976318262300914E-002,106.57111107611045,194.84598015971480,291.91478386552694
201801151600,415.67596139858676,1.8853805468726925,7.95656099478105200E-002,0,13.524002490097784,1,3.8706396901208571,1,-0.15469077075515458,0,8.48711272292689417E-002,1,9.3437293632810903,1.8517308536080834,0.22333367446787059,0.24948783478123110,-96.780476399391020,-0.22318551017316460,100.04677664379560,182.91741598770128,274.04362106686358
201801151630,415.77666972992188,1.9490659703893496,0.13736491809063686,0,16.227438646689048,0,4.8311192215403276,0,-0.68742050703843183,0,0.10598002873553852,0,12.213824595043851,2.4884758806756846,8.63246989414722526E-002,0.32811580183574485,-183.48358834946225,-0.11772170031284057,108.53057776833170,198.42851021294373,297.28206670771254
201801151700,415.74222518336666,2.1010055710853748,0.31508387326683646,0,32.755329499481213,0,10.124699170831546,0,-1.8953159353697511,0,0.22232909046222618,0,26.735606157107998,5.9057971009003047,-2.93996511097828692E-002,0.49801083006539010,-317.81254992839985,-6.79645910926622576E-002,111.98968900944854,204.75286878865143,306.75710830314347
201801151730,416.43757410096748,2.2838751651155529,0.38872138995938743,0,28.928157732910542,0,-14.946317194366387,2,1.0476888948474037,2,-0.32858858001434943,2,30.598160506709334,7.0654829356254529,0.59063802731967285,0.55451268854202274,-496.73766522942753,-4.34837168830828208E-002,112.09465955467645,204.94478842396634,307.04463888918161
201801151800,416.41018472896423,2.4595409883361463,0.29772135326100418,0,35.043923249366919,0,19.481183762803120,0,-1.2382730559063406,0,0.42876519966822502,0,29.322068509032622,6.7474984569491978,-2.31548397304547557E-002,0.48645330284704097,-276.80335612947590,-7.80337359417582893E-002,100.66795660676399,184.05313107519544,275.74512922231497
201801151830,416.50309961598475,2.5411775575285787,0.38442057246841760,0,36.664894722055095,0,25.489472868795271,0,-0.96875204351318112,0,0.56131111332329386,0,14.355616156610205,3.1273194451932191,7.83818644987754332E-002,0.55336398884937543,-389.46829068254459,-5.54602274864172476E-002,105.38531554497142,192.67796773870526,288.66670619526650
201801151900,416.45631503062106,2.6374704779051776,0.55813902745563737,0,39.198244202432065,0,33.768916757356330,0,-2.5141214775512344,0,0.74380234757195796,0,5.8669445152031443,3.6849332893941757,-3.94346936912843837E-002,0.66705860760317426,-638.18903276747244,-3.38457712228816612E-002,131.76872930599109,240.91526265208773,360.93496396150533
201801151930,416.44954561632579,2.7004602073996020,0.50783759792599226,0,34.199310830480172,0,30.716387716062997,0,-0.76149820875284924,0,0.67660266941800296,0,1.3909409446726284,2.4101511086784977,-5.70544061329443606E-003,0.63632530690017186,-635.02116678896118,-3.40146142044717159E-002,122.38506193483947,223.75892593041283,335.23164525856504
201801152000,416.34908376474533,2.7481849249547743,0.30470842980687662,0,21.376703685473974,0,17.739994253897780,0,-0.60664926654616069,0,0.39078143935749327,0,1.0145783155810446,1.8260038711416517,-8.46720273949035096E-002,0.49290427498348360,-472.24488442538251,-4.57389814318103632E-002,123.70219949528284,226.16707347038246,338.83948909537554
201801152030,416.01651412659658,2.7369292938813023,0.29407263220642804,0,23.534966494823742,0,21.387150010223245,0,-1.2639159486344704,0,0.47113808675243213,0,0.89198201500600460,-0.43070475985298673,-0.28034170983862344,0.48418748489724323,-406.66478999858930,-5.31149992112052091E-002,121.03047908127043,221.28231645204576,331.52123296263659
201801152100,415.27048516401612,2.5966751706903546,0.43523154574837236,0,1.6010543877910417,0,26.151973735909007,0,-0.45393141295723682,1,0.57613395082154317,0,1.4240110284917624,-5.3671737038248288,-0.62893345759347197,0.58899684028020782,-10762.968373651984,-2.00688130357024389E-003,128.26093297279951,234.50189220075367,351.32656635629871
201801152130,415.77360136688264,2.6034908873807274,8.70241976047276961E-002,0,-1.2084001013816013,1,2.4525640673857207,2,0.94750406387683306,2,5.40234133426315058E-002,2,-3.4491234370729682,0.26113284064789866,0.42459993840870325,0.26323404050240629,1273.4466314090430,1.69618415622962045E-002,94.145261652686557,172.12756439228465,257.87845720854153
201801152200,415.06682682268877,2.7075371533243069,0.10760606342060527,0,-5.2780401252806834,0,12.507195166504895,0,0.11130536572549227,0,0.27552107011861438,0,1.9993053372997456,3.9865612606349674,-0.59655121213644391,0.29269907816655000,400.95786139962456,5.38709976270344976E-002,83.482004823116071,152.63173003649382,228.67014473741025
201801152230,414.56877773197624,2.6959046225909331,9.23334516668916500E-002,1,-9.1354218048854126,1,7.4511384259408766,1,0.19018765507655377,1,0.16410823154100557,1,-5.2511741171484987,-0.44639782586322657,-0.42094731857903178,0.27094876812485785,183.82706450372601,0.11750174033575012,77.554902848837685,141.79509727529393,212.43489416810036
201801152300,414.50782957125313,2.7220568753709387,0.26293195916720746,0,-11.473456459413821,0,6.3476866190816406,0,0.20955377109079887,0,0.13977860497403960,0,-4.9783248249461431,1.0050151502254623,-5.15761988256274381E-002,0.45694603996077116,702.29916897150736,3.07561235358322395E-002,96.192049241399346,175.86974489387165,263.48492551448822
201801152330,413.90233372585760,2.5931663717861126,0.10546480933599416,1,-5.8736133076038035,1,14.198014416098165,1,0.27056916514261581,2,0.31252282421004918,1,-10.346362734547284,-4.9648682869810958,-0.51339555727962993,0.28910813736236957,347.53948942616120,6.21512106024693159E-002,73.245317781953332,133.91580130136856,200.63027300344729
201801160000,413.99933113140645,2.4328850581478503,9.89386296818260541E-002,1,-8.7588671181449644,1,6.3442567172910511,1,-0.64988982175476284,1,0.13958209204427671,1,-12.439849253942157,-6.1908317809313882,8.24280798842107615E-002,0.27969792130317100,211.07693994364516,0.10233235333886745,76.884304534973793,140.56902968118820,210.59802149336244
